SCP
0 0 0 0 0 0 0 0 0 0 0 0 0 0 0 0 0 0 0 0 0 0 0 0 0 0 0 0 0 0 0 0 0 0 0 0 0 0 0 0 0 0 0 0 0 0 0
0 0 0 0 0 0 0 0 0 0 0 0 0 0 0 0 0 0 0 0 0 0 0 0 0 0 0 0 0 0 0 0 0 0 0 0 0 0 0 0 0 0 0 0 0 0 0
0 0 0 0 0 0 0 0 0 0 0 0 0 0 0 0 0 0 0 0 0 0 0 0 0 0 0 0 0 0 0 0 0 0 0 0 0 0 0 0 0 0 0 0 0 0 0
0 0 0 0 0 0 0 0 0 0 0 0 0 0 0 0 0 0 0 -0 0 -0 0 0 0 0 0 0 0 0 0 0 0 0 0 0 0 0 -0 0 0 0 0 0 0 0 0
0 0 0 0 0 0 0 0 0 0 0 0 0 0 0 0 0 0 0 0 0 -0 0 0 0 0 0 0 0 0 0 0 -0 -0 0 0 0 0 0 0 0 0 0 0 0 0 0
0 0 0 0 0 0 0 0 0 -0 0 0 0 0 0 0 0 0 -0 0 0 0 0 0 0 0 0 0 0 0 0 0 -0 -0 -0 -0 -0 0 0 0 0 0 0 0 0 0 0
0 0 0 0 0 0 0 0 0 0 -0 0 0 0 0 0 0 0 -0 0 0 0 0 0 0 0 0 0 0 0 0 -0 0 0 0 0 0 0 -0 0 0 0 0 0 0 0 0
0 0 0 0 0 0 0 0 0 0 -0 0 0 0 0 0 0 0 0 0 0 0 0 -0 0 0 0 0 0 0 0 0 0 0 0 0 -0 -0 -0 0 0 0 0 0 0 0 0
0 0 0 0 0 0 0 0 0 0 0 0 0 0 0 0 0 0 0 0 -0 -0 0 0 0 0 0 0 0 0 0 0 0 0 0 0 0 -0 -0 0 -0 0 0 0 0 0 -0
0 0 0 0 0 0 0 0 0 0 0 0 0 0 0 0 0 0 0 -0 -0 -0 0 0 0 0 0 0 0 0 0 0 0 0 0 0 0 0 0 0 0 0 0 0 -0 0 0
0 0 0 0 0 0 0 0 0 -0 0 0 0 0 0 0 0 0 0 0 -0 -0 -0 0 0 0 0 0 0 0 0 0 0 0 0 -0 0 0 0 0 0 0 0 0 0 0 0
0 0 0 0 -0 0 -0 0 0 0 0 0 0 0 0 0 0 0 0 0 -0 0 -0 0 -0 0 0 0 0 0 0 0 0 0 0 -0 -0 0 0 0 0 0 0 0 0 0 0
0 0 0 0 -0 0 -0 -0 0 -0 0 0 0 0 0 0 0 0 0 -0 0 -0 0 0 0 0 0 0 0 0 0 0 0 0 0 0 0 0 0 0 0 0 0 0 0 0 -0
0 0 0 0 -0 0 0 0 -0 0 0 0 0 0 0 0 0 0 0 0 0 -0 0 0 0 0 0 0 0 0 0 0 0 0 0 0 0 0 0 0 0 0 0 0 0 0 -0
0 0 0 0 0 -0 0 0 -0 0 0 0 0 0 0 0 0 0 0 -0 0 -0 -0 0 0 0 0 0 0 0 0 0 0 0 0 0 0 0 0 0 0 0 0 0 0 0 0
0 0 0 -0 0 0 -0 -0 0 0 0 0 0 0 0 0 0 0 -0 0 -0 -0 -0 0 -0 0 0 0 0 0 0 0 0 0 0 0 0 0 0 0 0 0 0 0 0 0 0
-0 -0 -0 -0 0 -0 -0 0 0 0 0 0 0 0 0 0 0 0 0 0 -0 -0 0 -0 -0 0 0 0 0 0 0 0 0 0 0 0 0 0 0 0 0 0 0 0 0 0 0
-0 -0 -0 -0 -0 -0 0 0 0 0 0 0 0 0 0 0 0 0 0 -0 -0 -0 0 -0 -0 0 0 0 0 0 0 0 0 0 0 0 0 0 0 0 0 0 0 0 0 0 0
0 -0 0 -0 -0 0 0 0 0 0 0 0 0 0 0 0 0 -0 0 0 -0 -0 -0 -0 -0 -0 0 0 0 0 0 0 0 0 0 0 0 0 0 0 0 0 0 0 0 0 0
0 -0 -0 0 0 0 0 0 0 0 0 0 0 0 0 0 -0 0 0 -0 -0 -0 -0 -0 -0 -0 -0 -0 0 0 0 0 0 0 0 0 0 0 0 0 0 0 0 0 0 0 0
0 -0 0 0 0 0 0 0 0 0 0 0 0 0 0 0 -0 0 0 -0 0 0 -0 -0 -0 -0 -0 0 0 0 0 0 0 0 0 0 0 0 0 0 0 0 0 0 -0 0 0
-0 0 0 0 -0 -0 0 0 0 0 0 0 0 -0 0 0 -0 0 0 -0 0 0 0 0 -0 -0 -0 -0 0 0 0 0 0 0 0 0 0 0 0 0 0 0 0 -0 0 0 0
0 0 0 0 0 0 0 -0 0 0 0 0 0 0 0 0 0 0 0 0 0 -0 0 -0 -0 -0 -0 0 0 0 0 -0 0 0 0 0 0 0 0 0 0 0 -0 -0 -0 -0 -0
0 0 0 -0 0 0 0 -0 0 0 0 0 0 0 -0 0 0 0 0 0 0 0 -0 -0 -0 -0 -0 -0 0 0 -0 -0 -0 0 0 0 0 0 0 0 0 0 0 -0 -0 0 -0
-0 -0 0 0 -0 0 0 -0 -0 -0 0 0 0 0 -0 0 0 0 0 0 0 0 0 0 -0 -0 -0 -0 -0 -0 0 0 0 -0 -0 -0 0 -0 0 0 0 -0 0 0 0 0 -0
-0 -0 0 0 -0 0 0 0 -0 -0 0 0 0 0 -0 0 0 0 0 0 0 0 0 0 0 0 -0 -0 -0 -0 0 0 -0 -0 -0 -0 -0 -0 -0 -0 0 -0 -0 0 -0 0 0
-0 -0 0 -0 -0 -0 -0 0 0 0 0 0 0 0 0 0 0 0 0 0 0 0 0 0 0 -0 -0 -0 -0 -0 0 0 0 0 -0 -0 -0 0 0 0 0 0 0 0 0 -0 0
-0 -0 -0 -0 -0 -0 -0 -0 0 0 0 0 0 0 0 0 0 0 0 0 0 0 0 0 -0 -0 0 0 -0 0 -0 0 -0 0 0 0 0 0 0 0 0 0 0 0 0 0 0
-0 -0 -0 -0 0 0 -0 0 0 0 -0 0 0 0 0 0 0 0 0 0 0 0 0 0 -0 -0 -0 -0 -0 -0 0 -0 0 0 0 0 0 0 0 0 0 0 0 0 0 0 0
Wind_Speed_500mb
41 45 49 46 48 48 49 52 57 60 56 55 52 54 60 50 42 27 21 26 30 23 22 17 18 14 10 5 9 13 12 13 11 16 13 11 9 5 10 7 16 21 19 21 31 42 40
47 45 44 49 49 49 50 50 54 57 58 58 56 53 65 59 51 30 16 26 26 26 21 18 15 12 8 5 7 15 12 9 13 12 12 18 14 12 18 22 18 12 36 40 42 25 30
53 53 49 48 49 48 52 55 52 55 54 53 50 50 58 49 31 19 8 25 24 30 23 18 15 11 13 14 10 13 15 14 14 18 19 22 26 15 11 14 40 40 13 15 36 34 7
54 56 56 52 53 51 50 56 55 59 54 51 34 33 44 46 29 12 8 19 21 12 11 17 19 14 9 7 17 15 16 16 18 16 20 23 21 24 32 20 10 27 14 15 25 26 12
57 56 54 52 54 56 55 54 52 55 55 49 42 42 33 52 30 6 4 9 12 7 12 16 15 8 10 9 13 13 18 22 21 21 23 20 14 13 16 8 13 18 11 17 12 34 9
60 58 60 59 54 56 56 54 56 57 54 49 33 50 28 48 19 6 2 8 8 12 14 12 10 3 8 4 12 15 20 24 25 20 17 16 10 7 8 7 17 15 16 14 12 24 14
62 64 62 59 56 56 60 59 56 55 52 44 26 42 41 41 18 11 12 16 9 9 18 10 7 5 13 8 20 10 10 9 19 12 11 11 8 12 22 23 3 5 17 22 8 21 17
71 67 66 63 59 56 56 59 53 54 51 43 33 29 47 41 18 10 23 22 14 4 6 15 9 16 18 14 5 11 10 8 11 16 5 8 17 16 22 21 18 4 20 13 19 22 7
66 71 67 63 59 62 60 53 52 51 48 39 31 33 52 39 22 10 29 46 10 12 5 6 7 14 8 7 6 10 10 8 11 13 17 20 7 19 16 18 19 15 24 14 27 20 16
72 70 68 66 65 59 60 51 50 47 44 37 29 36 48 31 16 14 35 38 15 13 8 5 3 6 2 2 7 13 11 8 5 8 12 13 10 15 19 14 19 17 15 29 32 13 10
77 76 69 66 64 61 60 50 54 43 38 34 23 21 49 33 14 20 11 30 20 9 7 6 3 5 4 3 13 6 10 10 11 10 6 10 9 6 10 14 25 7 19 33 17 17 19
79 76 71 67 63 57 54 50 49 36 32 28 21 26 49 36 18 17 19 27 20 11 7 3 2 4 2 7 7 7 5 14 18 1 7 7 3 3 4 2 8 20 14 9 5 1 8
82 77 70 67 61 54 49 43 45 37 26 28 15 20 59 37 25 28 31 30 8 9 6 5 5 3 2 6 5 3 6 4 8 9 10 6 6 5 5 14 7 10 7 5 7 7 5
86 77 65 64 53 48 43 40 37 35 27 28 15 31 44 35 35 35 42 6 7 5 8 2 3 4 5 7 4 4 3 11 8 7 7 11 9 16 15 6 6 6 3 7 10 8 7
76 68 60 51 43 41 39 38 48 40 36 20 7 55 42 38 39 44 16 5 11 11 10 12 5 7 7 2 1 9 9 10 6 10 8 4 10 7 11 8 5 11 8 2 12 5 7
68 62 55 45 43 45 45 55 50 34 21 21 45 50 45 42 44 43 6 7 3 5 5 5 7 2 4 10 7 7 11 7 11 11 3 3 8 6 5 5 12 1 1 2 6 7 8
62 54 50 49 54 51 58 56 36 41 42 38 61 20 40 45 39 17 5 9 6 6 3 1 7 8 3 3 4 7 8 6 7 12 10 4 5 5 4 9 5 6 4 10 8 3 7
60 57 56 56 55 55 59 28 43 38 53 98 29 7 49 46 12 6 5 8 5 5 5 2 7 6 5 3 7 5 5 4 24 6 6 5 7 8 1 8 6 4 5 5 7 6 8
60 60 61 57 72 78 51 6 45 57 81 75 18 21 45 44 6 8 6 4 4 5 3 4 5 2 2 5 5 3 2 5 17 9 4 3 7 5 13 6 4 11 8 7 7 5 4
63 67 74 91 80 2 29 70 67 87 78 59 21 7 14 16 4 8 7 7 6 2 3 6 6 5 5 7 10 5 4 6 12 8 15 8 7 6 8 4 2 7 8 6 6 6 4
66 77 102 61 46 48 71 75 93 79 64 37 12 6 13 11 10 5 2 7 10 7 4 4 5 5 4 5 4 5 2 6 6 15 8 7 7 5 7 6 7 6 8 6 8 5 7
75 94 70 84 37 59 71 91 84 71 49 20 12 11 14 7 27 8 2 6 7 4 5 1 10 6 4 6 2 9 6 1 2 10 7 7 2 5 9 10 9 5 4 6 6 4 0
70 82 61 68 58 86 92 76 48 40 29 18 15 29 19 17 20 6 10 9 12 11 8 6 12 9 11 4 8 12 14 18 10 5 5 6 6 5 3 8 6 8 4 2 3 4 3
58 63 47 57 55 78 57 55 40 38 33 22 29 14 11 6 15 14 7 4 10 3 12 5 11 8 11 33 26 23 31 32 30 18 10 7 6 4 2 6 6 8 7 3 7 10 11
44 40 40 27 26 57 40 39 35 37 33 22 15 6 9 10 14 2 6 10 17 21 10 9 7 14 31 4 7 8 9 7 12 11 14 9 7 7 5 1 6 2 4 2 3 2 8
39 28 21 15 23 41 47 27 31 32 27 34 36 18 13 21 3 5 5 6 7 6 7 7 15 24 5 6 6 4 4 3 3 5 7 9 11 7 3 5 5 8 3 2 4 5 2
40 38 16 14 29 29 67 27 24 23 16 30 38 26 12 19 7 7 4 6 10 9 7 6 7 4 6 4 4 4 4 3 4 8 3 5 5 7 3 1 10 9 6 2 3 5 5
34 32 6 5 17 29 50 48 26 23 13 5 32 34 9 15 15 8 9 7 9 8 8 14 8 3 5 5 5 5 5 7 3 6 8 10 9 6 4 3 9 7 4 10 5 4 7
34 32 11 9 14 22 34 48 49 19 18 15 12 22 16 13 19 25 24 18 13 10 14 18 5 6 7 7 2 5 3 3 7 5 1 4 10 8 13 9 5 5 8 17 5 5 7
Wind_Direction_500mb
335 331 331 332 328 329 327 326 324 300 295 298 307 317 275 282 273 281 301 280 291 293 266 264 268 283 296 266 242 201 185 230 268 288 280 249 266 258 244 245 235 240 252 281 260 267 275
328 327 327 325 326 326 329 330 326 323 294 288 296 323 274 284 274 281 309 286 295 274 268 250 269 284 256 244 202 191 216 260 304 291 275 255 230 220 267 251 231 231 234 250 267 280 244
323 324 323 325 325 324 328 327 328 327 325 303 291 307 273 257 251 277 302 283 291 265 264 225 259 276 258 259 215 219 244 271 295 296 275 277 246 259 282 257 234 243 283 247 236 251 236
320 318 317 320 318 323 325 322 327 326 329 322 314 312 276 249 243 264 303 289 283 269 217 216 249 268 255 217 217 235 253 247 286 280 278 288 258 227 232 237 254 204 241 238 223 210 217
321 322 319 315 317 318 320 324 324 324 327 322 324 317 284 243 234 251 268 300 233 194 201 211 235 240 278 210 240 264 259 259 278 284 285 270 236 226 203 211 218 186 195 219 155 186 128
318 316 314 313 313 316 319 323 322 323 324 325 331 323 252 227 223 169 232 191 181 198 187 192 218 257 248 237 286 280 278 259 269 280 284 234 230 223 187 190 200 200 191 181 169 167 134
316 315 313 313 312 312 314 317 319 322 323 321 313 337 221 219 220 158 161 177 154 202 194 220 171 247 273 303 297 281 271 264 252 236 236 202 221 230 202 196 266 53 179 171 171 152 138
318 317 313 311 309 308 306 310 315 314 317 314 321 308 243 226 202 138 179 194 218 157 165 212 224 269 279 283 300 264 265 235 206 243 210 229 243 237 207 205 231 167 195 161 119 147 118
314 309 309 307 305 304 306 302 305 309 310 312 319 312 225 215 178 161 207 209 197 163 107 209 219 264 272 233 257 232 238 217 233 243 237 245 291 172 166 190 184 226 204 154 135 117 83
315 310 306 305 304 302 301 302 299 301 304 300 293 359 221 189 185 177 216 204 197 181 71 275 270 262 230 185 284 264 252 241 251 268 233 237 221 168 163 209 189 177 193 145 146 166 94
315 311 309 307 302 301 300 299 307 296 290 289 278 307 217 198 168 177 216 194 179 181 38 259 228 266 250 128 309 275 249 209 244 239 213 68 136 137 161 181 196 194 142 140 163 110 124
314 310 309 305 299 299 294 298 297 299 298 281 296 314 204 188 176 152 179 172 163 45 260 312 233 232 293 187 221 278 248 223 265 202 15 86 339 185 289 228 180 135 102 98 103 150 59
315 311 310 306 302 298 295 290 289 305 288 286 287 295 192 188 163 159 162 166 53 125 281 240 195 140 61 293 298 276 334 324 18 9 18 158 105 191 49 101 36 86 73 43 28 47 80
319 317 313 307 301 296 288 285 297 292 267 271 240 197 180 170 154 163 162 59 97 128 206 263 198 81 63 344 312 7 345 7 33 49 47 27 64 11 348 56 122 82 136 156 143 129 170
323 317 316 320 308 303 297 288 283 270 256 234 262 168 167 160 155 167 169 72 207 194 168 165 67 67 345 355 236 21 25 355 350 8 97 59 50 16 16 19 4 313 38 275 106 66 94
324 321 316 318 311 305 294 284 284 287 200 176 163 159 160 160 159 172 79 245 209 183 145 230 110 70 24 323 26 34 18 335 339 19 255 68 99 13 18 56 321 292 257 63 13 98 82
328 328 326 318 311 301 296 292 295 285 211 157 151 117 165 160 158 160 172 229 238 191 185 130 138 122 192 331 31 27 350 329 357 330 45 39 43 319 11 22 341 353 13 48 108 48 123
333 333 326 318 306 306 317 318 308 180 196 159 125 102 161 149 134 183 206 208 163 163 203 71 103 105 133 138 41 70 66 300 337 304 55 334 106 65 174 270 258 3 40 75 96 344 47
343 337 322 324 326 327 328 344 145 153 161 148 88 94 161 163 148 186 258 224 141 156 207 101 97 83 149 83 88 59 76 326 355 40 72 6 14 37 351 6 50 51 27 56 70 69 358
350 336 340 336 339 291 134 146 141 141 145 138 106 118 148 199 182 176 182 146 106 73 91 82 104 92 94 55 18 112 44 340 350 31 44 85 64 113 157 236 297 56 34 40 97 72 167
349 355 353 16 43 131 142 144 143 142 145 144 88 111 162 176 217 201 235 133 128 138 64 47 64 65 117 94 47 73 1 350 4 2 37 79 95 72 46 27 50 55 33 25 76 144 99
359 4 22 33 85 126 139 143 150 154 152 129 107 139 154 164 174 153 358 165 132 123 114 172 119 97 44 110 231 194 155 115 14 359 50 16 99 83 31 13 27 94 74 67 77 100 139
8 22 44 34 127 134 145 152 136 129 123 97 99 123 121 134 165 172 175 179 178 140 37 100 147 101 67 35 112 101 101 88 85 78 64 56 117 65 330 341 7 28 24 85 98 155 145
14 26 65 45 143 150 143 128 112 101 90 98 127 126 114 135 169 169 162 213 139 12 132 65 100 92 135 124 95 89 76 72 60 36 44 116 93 78 165 4 45 245 305 239 86 31 6
17 23 44 72 99 165 131 145 109 102 75 70 98 131 124 124 160 299 168 116 100 77 63 78 59 129 146 123 62 41 357 22 9 28 19 47 104 75 96 137 256 47 355 77 168 26 356
14 7 25 64 115 174 169 139 134 114 71 63 55 80 107 120 160 130 111 138 120 94 37 63 98 134 132 76 68 107 201 218 342 11 26 42 65 99 95 103 193 230 271 23 71 253 17
3 0 3 48 157 141 183 158 166 143 82 45 39 47 71 101 82 127 117 154 130 100 99 126 143 135 37 78 81 146 222 186 164 172 171 31 17 125 154 186 286 237 276 136 128 228 339
355 355 338 17 142 156 180 193 179 175 188 21 29 30 69 100 76 119 122 127 134 143 138 157 99 353 55 87 141 196 157 216 119 187 188 174 143 184 100 113 292 191 130 170 156 124 337
0 347 310 209 136 169 176 194 206 196 203 238 356 14 69 99 120 104 98 103 116 124 129 157 126 147 151 95 127 124 161 123 163 239 26 222 184 183 181 211 182 164 152 134 87 355 327
Wind_Speed_850mb
41 45 49 46 48 48 49 52 57 60 56 55 52 54 60 50 42 27 21 26 30 23 22 17 18 14 10 5 9 13 12 13 11 16 13 11 9 5 10 7 16 21 19 21 31 42 40
47 45 44 49 49 49 50 50 54 57 58 58 56 53 65 59 51 30 16 26 26 26 21 18 15 12 8 5 7 15 12 9 13 12 12 18 14 12 18 22 18 12 36 40 42 25 30
53 53 49 48 49 48 52 55 52 55 54 53 50 50 58 49 31 19 8 25 24 30 23 18 15 11 13 14 10 13 15 14 14 18 19 22 26 15 11 14 40 40 13 15 36 34 7
54 56 56 52 53 51 50 56 55 59 54 51 34 33 44 46 29 12 8 19 21 12 11 17 19 14 9 7 17 15 16 16 18 16 20 23 21 24 32 20 10 27 14 15 25 26 12
57 56 54 52 54 56 55 54 52 55 55 49 42 42 33 52 30 6 4 9 12 7 12 16 15 8 10 9 13 13 18 22 21 21 23 20 14 13 16 8 13 18 11 17 12 34 9
60 58 60 59 54 56 56 54 56 57 54 49 33 50 28 48 19 6 2 8 8 12 14 12 10 3 8 4 12 15 20 24 25 20 17 16 10 7 8 7 17 15 16 14 12 24 14
62 64 62 59 56 56 60 59 56 55 52 44 26 42 41 41 18 11 12 16 9 9 18 10 7 5 13 8 20 10 10 9 19 12 11 11 8 12 22 23 3 5 17 22 8 21 17
71 67 66 63 59 56 56 59 53 54 51 43 33 29 47 41 18 10 23 22 14 4 6 15 9 16 18 14 5 11 10 8 11 16 5 8 17 16 22 21 18 4 20 13 19 22 7
66 71 67 63 59 62 60 53 52 51 48 39 31 33 52 39 22 10 29 46 10 12 5 6 7 14 8 7 6 10 10 8 11 13 17 20 7 19 16 18 19 15 24 14 27 20 16
72 70 68 66 65 59 60 51 50 47 44 37 29 36 48 31 16 14 35 38 15 13 8 5 3 6 2 2 7 13 11 8 5 8 12 13 10 15 19 14 19 17 15 29 32 13 10
77 76 69 66 64 61 60 50 54 43 38 34 23 21 49 33 14 20 11 30 20 9 7 6 3 5 4 3 13 6 10 10 11 10 6 10 9 6 10 14 25 7 19 33 17 17 19
79 76 71 67 63 57 54 50 49 36 32 28 21 26 49 36 18 17 19 27 20 11 7 3 2 4 2 7 7 7 5 14 18 1 7 7 3 3 4 2 8 20 14 9 5 1 8
82 77 70 67 61 54 49 43 45 37 26 28 15 20 59 37 25 28 31 30 8 9 6 5 5 3 2 6 5 3 6 4 8 9 10 6 6 5 5 14 7 10 7 5 7 7 5
86 77 65 64 53 48 43 40 37 35 27 28 15 31 44 35 35 35 42 6 7 5 8 2 3 4 5 7 4 4 3 11 8 7 7 11 9 16 15 6 6 6 3 7 10 8 7
76 68 60 51 43 41 39 38 48 40 36 20 7 55 42 38 39 44 16 5 11 11 10 12 5 7 7 2 1 9 9 10 6 10 8 4 10 7 11 8 5 11 8 2 12 5 7
68 62 55 45 43 45 45 55 50 34 21 21 45 50 45 42 44 43 6 7 3 5 5 5 7 2 4 10 7 7 11 7 11 11 3 3 8 6 5 5 12 1 1 2 6 7 8
62 54 50 49 54 51 58 56 36 41 42 38 61 20 40 45 39 17 5 9 6 6 3 1 7 8 3 3 4 7 8 6 7 12 10 4 5 5 4 9 5 6 4 10 8 3 7
60 57 56 56 55 55 59 28 43 38 53 98 29 7 49 46 12 6 5 8 5 5 5 2 7 6 5 3 7 5 5 4 24 6 6 5 7 8 1 8 6 4 5 5 7 6 8
60 60 61 57 72 78 51 6 45 57 81 75 18 21 45 44 6 8 6 4 4 5 3 4 5 2 2 5 5 3 2 5 17 9 4 3 7 5 13 6 4 11 8 7 7 5 4
63 67 74 91 80 2 29 70 67 87 78 59 21 7 14 16 4 8 7 7 6 2 3 6 6 5 5 7 10 5 4 6 12 8 15 8 7 6 8 4 2 7 8 6 6 6 4
66 77 102 61 46 48 71 75 93 79 64 37 12 6 13 11 10 5 2 7 10 7 4 4 5 5 4 5 4 5 2 6 6 15 8 7 7 5 7 6 7 6 8 6 8 5 7
75 94 70 84 37 59 71 91 84 71 49 20 12 11 14 7 27 8 2 6 7 4 5 1 10 6 4 6 2 9 6 1 2 10 7 7 2 5 9 10 9 5 4 6 6 4 0
70 82 61 68 58 86 92 76 48 40 29 18 15 29 19 17 20 6 10 9 12 11 8 6 12 9 11 4 8 12 14 18 10 5 5 6 6 5 3 8 6 8 4 2 3 4 3
58 63 47 57 55 78 57 55 40 38 33 22 29 14 11 6 15 14 7 4 10 3 12 5 11 8 11 33 26 23 31 32 30 18 10 7 6 4 2 6 6 8 7 3 7 10 11
44 40 40 27 26 57 40 39 35 37 33 22 15 6 9 10 14 2 6 10 17 21 10 9 7 14 31 4 7 8 9 7 12 11 14 9 7 7 5 1 6 2 4 2 3 2 8
39 28 21 15 23 41 47 27 31 32 27 34 36 18 13 21 3 5 5 6 7 6 7 7 15 24 5 6 6 4 4 3 3 5 7 9 11 7 3 5 5 8 3 2 4 5 2
40 38 16 14 29 29 67 27 24 23 16 30 38 26 12 19 7 7 4 6 10 9 7 6 7 4 6 4 4 4 4 3 4 8 3 5 5 7 3 1 10 9 6 2 3 5 5
34 32 6 5 17 29 50 48 26 23 13 5 32 34 9 15 15 8 9 7 9 8 8 14 8 3 5 5 5 5 5 7 3 6 8 10 9 6 4 3 9 7 4 10 5 4 7
34 32 11 9 14 22 34 48 49 19 18 15 12 22 16 13 19 25 24 18 13 10 14 18 5 6 7 7 2 5 3 3 7 5 1 4 10 8 13 9 5 5 8 17 5 5 7
Wind_Direction_850mb
335 331 331 332 328 329 327 326 324 300 295 298 307 317 275 282 273 281 301 280 291 293 266 264 268 283 296 266 242 201 185 230 268 288 280 249 266 258 244 245 235 240 252 281 260 267 275
328 327 327 325 326 326 329 330 326 323 294 288 296 323 274 284 274 281 309 286 295 274 268 250 269 284 256 244 202 191 216 260 304 291 275 255 230 220 267 251 231 231 234 250 267 280 244
323 324 323 325 325 324 328 327 328 327 325 303 291 307 273 257 251 277 302 283 291 265 264 225 259 276 258 259 215 219 244 271 295 296 275 277 246 259 282 257 234 243 283 247 236 251 236
320 318 317 320 318 323 325 322 327 326 329 322 314 312 276 249 243 264 303 289 283 269 217 216 249 268 255 217 217 235 253 247 286 280 278 288 258 227 232 237 254 204 241 238 223 210 217
321 322 319 315 317 318 320 324 324 324 327 322 324 317 284 243 234 251 268 300 233 194 201 211 235 240 278 210 240 264 259 259 278 284 285 270 236 226 203 211 218 186 195 219 155 186 128
318 316 314 313 313 316 319 323 322 323 324 325 331 323 252 227 223 169 232 191 181 198 187 192 218 257 248 237 286 280 278 259 269 280 284 234 230 223 187 190 200 200 191 181 169 167 134
316 315 313 313 312 312 314 317 319 322 323 321 313 337 221 219 220 158 161 177 154 202 194 220 171 247 273 303 297 281 271 264 252 236 236 202 221 230 202 196 266 53 179 171 171 152 138
318 317 313 311 309 308 306 310 315 314 317 314 321 308 243 226 202 138 179 194 218 157 165 212 224 269 279 283 300 264 265 235 206 243 210 229 243 237 207 205 231 167 195 161 119 147 118
314 309 309 307 305 304 306 302 305 309 310 312 319 312 225 215 178 161 207 209 197 163 107 209 219 264 272 233 257 232 238 217 233 243 237 245 291 172 166 190 184 226 204 154 135 117 83
315 310 306 305 304 302 301 302 299 301 304 300 293 359 221 189 185 177 216 204 197 181 71 275 270 262 230 185 284 264 252 241 251 268 233 237 221 168 163 209 189 177 193 145 146 166 94
315 311 309 307 302 301 300 299 307 296 290 289 278 307 217 198 168 177 216 194 179 181 38 259 228 266 250 128 309 275 249 209 244 239 213 68 136 137 161 181 196 194 142 140 163 110 124
314 310 309 305 299 299 294 298 297 299 298 281 296 314 204 188 176 152 179 172 163 45 260 312 233 232 293 187 221 278 248 223 265 202 15 86 339 185 289 228 180 135 102 98 103 150 59
315 311 310 306 302 298 295 290 289 305 288 286 287 295 192 188 163 159 162 166 53 125 281 240 195 140 61 293 298 276 334 324 18 9 18 158 105 191 49 101 36 86 73 43 28 47 80
319 317 313 307 301 296 288 285 297 292 267 271 240 197 180 170 154 163 162 59 97 128 206 263 198 81 63 344 312 7 345 7 33 49 47 27 64 11 348 56 122 82 136 156 143 129 170
323 317 316 320 308 303 297 288 283 270 256 234 262 168 167 160 155 167 169 72 207 194 168 165 67 67 345 355 236 21 25 355 350 8 97 59 50 16 16 19 4 313 38 275 106 66 94
324 321 316 318 311 305 294 284 284 287 200 176 163 159 160 160 159 172 79 245 209 183 145 230 110 70 24 323 26 34 18 335 339 19 255 68 99 13 18 56 321 292 257 63 13 98 82
328 328 326 318 311 301 296 292 295 285 211 157 151 117 165 160 158 160 172 229 238 191 185 130 138 122 192 331 31 27 350 329 357 330 45 39 43 319 11 22 341 353 13 48 108 48 123
333 333 326 318 306 306 317 318 308 180 196 159 125 102 161 149 134 183 206 208 163 163 203 71 103 105 133 138 41 70 66 300 337 304 55 334 106 65 174 270 258 3 40 75 96 344 47
343 337 322 324 326 327 328 344 145 153 161 148 88 94 161 163 148 186 258 224 141 156 207 101 97 83 149 83 88 59 76 326 355 40 72 6 14 37 351 6 50 51 27 56 70 69 358
350 336 340 336 339 291 134 146 141 141 145 138 106 118 148 199 182 176 182 146 106 73 91 82 104 92 94 55 18 112 44 340 350 31 44 85 64 113 157 236 297 56 34 40 97 72 167
349 355 353 16 43 131 142 144 143 142 145 144 88 111 162 176 217 201 235 133 128 138 64 47 64 65 117 94 47 73 1 350 4 2 37 79 95 72 46 27 50 55 33 25 76 144 99
359 4 22 33 85 126 139 143 150 154 152 129 107 139 154 164 174 153 358 165 132 123 114 172 119 97 44 110 231 194 155 115 14 359 50 16 99 83 31 13 27 94 74 67 77 100 139
8 22 44 34 127 134 145 152 136 129 123 97 99 123 121 134 165 172 175 179 178 140 37 100 147 101 67 35 112 101 101 88 85 78 64 56 117 65 330 341 7 28 24 85 98 155 145
14 26 65 45 143 150 143 128 112 101 90 98 127 126 114 135 169 169 162 213 139 12 132 65 100 92 135 124 95 89 76 72 60 36 44 116 93 78 165 4 45 245 305 239 86 31 6
17 23 44 72 99 165 131 145 109 102 75 70 98 131 124 124 160 299 168 116 100 77 63 78 59 129 146 123 62 41 357 22 9 28 19 47 104 75 96 137 256 47 355 77 168 26 356
14 7 25 64 115 174 169 139 134 114 71 63 55 80 107 120 160 130 111 138 120 94 37 63 98 134 132 76 68 107 201 218 342 11 26 42 65 99 95 103 193 230 271 23 71 253 17
3 0 3 48 157 141 183 158 166 143 82 45 39 47 71 101 82 127 117 154 130 100 99 126 143 135 37 78 81 146 222 186 164 172 171 31 17 125 154 186 286 237 276 136 128 228 339
355 355 338 17 142 156 180 193 179 175 188 21 29 30 69 100 76 119 122 127 134 143 138 157 99 353 55 87 141 196 157 216 119 187 188 174 143 184 100 113 292 191 130 170 156 124 337
0 347 310 209 136 169 176 194 206 196 203 238 356 14 69 99 120 104 98 103 116 124 129 157 126 147 151 95 127 124 161 123 163 239 26 222 184 183 181 211 182 164 152 134 87 355 327